Time,TemperatureF,DewpointF,PressureIn,WindDirection,WindDirectionDegrees,WindSpeedMPH,WindSpeedGustMPH,Humidity,HourlyPrecipIn,Conditions,Clouds,dailyrainin,SoftwareType,DateUTC
2013-04-19 00:00:00,40.6,3.6,29.62,SSW,201,6.0,6.0,21,0.00,,,0.00,Wunderground v.1.15,2013-04-19 07:00:00,
2013-04-19 00:10:00,40.2,3.3,29.62,SSW,204,6.0,6.0,21,0.00,,,0.00,Wunderground v.1.15,2013-04-19 07:10:00,
2013-04-19 00:15:00,39.7,2.9,29.62,SSW,192,5.0,6.0,21,0.00,,,0.00,Wunderground v.1.15,2013-04-19 07:15:00,
2013-04-19 00:25:00,38.5,2.9,29.62,South,180,5.0,6.0,22,0.00,,,0.00,Wunderground v.1.15,2013-04-19 07:25:00,
2013-04-19 00:30:00,38.3,2.7,29.62,SSW,193,5.0,6.0,22,0.00,,,0.00,Wunderground v.1.15,2013-04-19 07:30:00,
2013-04-19 00:35:00,38.4,2.8,29.62,SSW,199,6.0,6.0,22,0.00,,,0.00,Wunderground v.1.15,2013-04-19 07:35:00,
2013-04-19 00:40:00,37.9,3.3,29.62,South,188,5.0,5.0,23,0.00,,,0.00,Wunderground v.1.15,2013-04-19 07:40:00,
2013-04-19 00:45:00,37.2,2.7,29.62,SSW,192,5.0,6.0,23,0.00,,,0.00,Wunderground v.1.15,2013-04-19 07:45:00,
2013-04-19 00:50:00,37.1,2.7,29.62,SSW,201,5.0,5.0,23,0.00,,,0.00,Wunderground v.1.15,2013-04-19 07:50:00,
2013-04-19 00:55:00,36.3,2.9,29.62,SSW,207,5.0,5.0,24,0.00,,,0.00,Wunderground v.1.15,2013-04-19 07:55:00,
2013-04-19 01:00:00,36.5,3.1,29.62,SSW,198,5.0,5.0,24,0.00,,,0.00,Wunderground v.1.15,2013-04-19 08:00:00,
2013-04-19 01:10:00,35.9,3.4,29.62,South,188,5.0,5.0,25,0.00,,,0.00,Wunderground v.1.15,2013-04-19 08:10:00,
2013-04-19 01:15:00,35.3,2.9,29.62,SSW,192,5.0,5.0,25,0.00,,,0.00,Wunderground v.1.15,2013-04-19 08:15:00,
2013-04-19 01:20:00,35.1,2.7,29.62,South,190,5.0,5.0,25,0.00,,,0.00,Wunderground v.1.15,2013-04-19 08:20:00,
2013-04-19 01:25:00,35.2,2.8,29.62,South,189,5.0,5.0,25,0.00,,,0.00,Wunderground v.1.15,2013-04-19 08:25:00,
2013-04-19 01:30:00,35.3,2.9,29.62,South,189,5.0,7.0,25,0.00,,,0.00,Wunderground v.1.15,2013-04-19 08:30:00,
2013-04-19 01:35:00,35.8,3.3,29.62,SSW,193,6.0,7.0,25,0.00,,,0.00,Wunderground v.1.15,2013-04-19 08:35:00,
2013-04-19 01:40:00,36.6,4.0,29.62,SSW,192,4.0,4.0,25,0.00,,,0.00,Wunderground v.1.15,2013-04-19 08:40:00,
2013-04-19 01:45:00,36.4,3.0,29.62,SSW,192,4.0,6.0,24,0.00,,,0.00,Wunderground v.1.15,2013-04-19 08:45:00,
2013-04-19 01:55:00,35.0,2.7,29.62,SSW,209,5.0,7.0,25,0.00,,,0.00,Wunderground v.1.15,2013-04-19 08:55:00,
2013-04-19 02:00:00,34.9,3.4,29.62,SSW,206,6.0,7.0,26,0.00,,,0.00,Wunderground v.1.15,2013-04-19 09:00:00,
2013-04-19 02:10:00,34.5,3.9,29.62,SSW,205,7.0,7.0,27,0.00,,,0.00,Wunderground v.1.15,2013-04-19 09:10:00,
2013-04-19 02:15:00,34.2,3.6,29.62,SSW,206,7.0,7.0,27,0.00,,,0.00,Wunderground v.1.15,2013-04-19 09:15:00,
2013-04-19 02:20:00,34.0,4.3,29.62,SSW,207,7.0,7.0,28,0.00,,,0.00,Wunderground v.1.15,2013-04-19 09:20:00,
2013-04-19 02:30:00,34.2,3.6,29.62,SSW,194,6.0,6.0,27,0.00,,,0.00,Wunderground v.1.15,2013-04-19 09:30:00,
2013-04-19 02:35:00,34.1,3.5,29.62,SSW,195,6.0,7.0,27,0.00,,,0.00,Wunderground v.1.15,2013-04-19 09:35:00,
2013-04-19 02:40:00,34.3,3.7,29.62,SSW,198,7.0,7.0,27,0.00,,,0.00,Wunderground v.1.15,2013-04-19 09:40:00,
2013-04-19 02:45:00,34.6,4.0,29.62,SSW,208,7.0,7.0,27,0.00,,,0.00,Wunderground v.1.15,2013-04-19 09:45:00,
2013-04-19 02:50:00,34.4,3.8,29.62,SSW,199,7.0,7.0,27,0.00,,,0.00,Wunderground v.1.15,2013-04-19 09:50:00,
2013-04-19 02:55:00,34.0,4.3,29.62,SSW,196,6.0,7.0,28,0.00,,,0.00,Wunderground v.1.15,2013-04-19 09:55:00,
2013-04-19 03:00:00,33.7,4.0,29.62,SSW,204,6.0,6.0,28,0.00,,,0.00,Wunderground v.1.15,2013-04-19 10:00:00,
2013-04-19 03:10:00,33.8,4.1,29.62,SW,214,5.0,5.0,28,0.00,,,0.00,Wunderground v.1.15,2013-04-19 10:10:00,
2013-04-19 03:15:00,33.7,4.0,29.62,SW,229,5.0,5.0,28,0.00,,,0.00,Wunderground v.1.15,2013-04-19 10:15:00,
2013-04-19 03:20:00,33.7,4.0,29.62,SW,229,5.0,5.0,28,0.00,,,0.00,Wunderground v.1.15,2013-04-19 10:20:00,
2013-04-19 03:25:00,34.8,4.2,29.62,SSW,212,5.0,5.0,27,0.00,,,0.00,Wunderground v.1.15,2013-04-19 10:25:00,
2013-04-19 03:35:00,35.5,3.9,29.62,SSW,205,6.0,7.0,26,0.00,,,0.00,Wunderground v.1.15,2013-04-19 10:35:00,
2013-04-19 03:40:00,35.6,4.0,29.62,SSW,212,6.0,6.0,26,0.00,,,0.00,Wunderground v.1.15,2013-04-19 10:40:00,
2013-04-19 03:45:00,35.2,3.7,29.62,SW,223,6.0,6.0,26,0.00,,,0.00,Wunderground v.1.15,2013-04-19 10:45:00,
2013-04-19 03:50:00,34.9,3.4,29.62,SW,223,5.0,5.0,26,0.00,,,0.00,Wunderground v.1.15,2013-04-19 10:50:00,
2013-04-19 03:55:00,34.6,4.0,29.62,SW,220,5.0,6.0,27,0.00,,,0.00,Wunderground v.1.15,2013-04-19 10:55:00,
2013-04-19 04:00:00,34.7,3.2,29.62,WSW,238,6.0,6.0,26,0.00,,,0.00,Wunderground v.1.15,2013-04-19 11:00:00,
2013-04-19 04:10:00,34.8,3.3,29.62,SW,231,5.0,6.0,26,0.00,,,0.00,Wunderground v.1.15,2013-04-19 11:10:00,
2013-04-19 04:15:00,34.0,2.6,29.62,WSW,247,6.0,6.0,26,0.00,,,0.00,Wunderground v.1.15,2013-04-19 11:15:00,
2013-04-19 04:25:00,33.8,3.3,29.62,WSW,238,5.0,5.0,27,0.00,,,0.00,Wunderground v.1.15,2013-04-19 11:25:00,
2013-04-19 04:30:00,34.2,3.6,29.62,SW,234,5.0,5.0,27,0.00,,,0.00,Wunderground v.1.15,2013-04-19 11:30:00,
2013-04-19 04:40:00,35.6,4.0,29.62,SW,217,5.0,6.0,26,0.00,,,0.00,Wunderground v.1.15,2013-04-19 11:40:00,
2013-04-19 04:45:00,36.3,3.8,29.62,SW,216,6.0,7.0,25,0.00,,,0.00,Wunderground v.1.15,2013-04-19 11:45:00,
2013-04-19 04:50:00,36.0,3.5,29.62,SSW,205,6.0,7.0,25,0.00,,,0.00,Wunderground v.1.15,2013-04-19 11:50:00,
2013-04-19 04:55:00,35.3,2.9,29.62,SSW,200,7.0,7.0,25,0.00,,,0.00,Wunderground v.1.15,2013-04-19 11:55:00,
2013-04-19 05:00:00,34.9,3.4,29.62,SSW,213,6.0,7.0,26,0.00,,,0.00,Wunderground v.1.15,2013-04-19 12:00:00,
2013-04-19 05:10:00,33.4,2.9,29.62,SW,221,6.0,6.0,27,0.00,,,0.00,Wunderground v.1.15,2013-04-19 12:10:00,
2013-04-19 05:16:00,32.8,3.2,29.62,SW,221,4.0,6.0,28,0.00,,,0.00,Wunderground v.1.15,2013-04-19 12:16:00,
2013-04-19 05:25:00,33.7,3.2,29.62,SW,230,5.0,6.0,27,0.00,,,0.00,Wunderground v.1.15,2013-04-19 12:25:00,
2013-04-19 05:35:00,33.3,2.9,29.62,SW,231,6.0,7.0,27,0.00,,,0.00,Wunderground v.1.15,2013-04-19 12:35:00,
2013-04-19 05:45:00,33.9,3.4,29.62,SSW,207,6.0,6.0,27,0.00,,,0.00,Wunderground v.1.15,2013-04-19 12:45:00,
2013-04-19 05:50:00,34.2,2.8,29.62,SSW,194,6.0,6.0,26,0.00,,,0.00,Wunderground v.1.15,2013-04-19 12:50:00,
2013-04-19 05:55:00,34.2,2.8,29.62,SSW,205,6.0,7.0,26,0.00,,,0.00,Wunderground v.1.15,2013-04-19 12:55:00,
2013-04-19 06:00:00,34.1,2.7,29.62,SSW,194,6.0,6.0,26,0.00,,,0.00,Wunderground v.1.15,2013-04-19 13:00:00,
2013-04-19 06:10:00,34.2,3.6,29.62,SSW,194,5.0,5.0,27,0.00,,,0.00,Wunderground v.1.15,2013-04-19 13:10:00,
2013-04-19 06:15:00,34.9,3.4,29.62,SSW,200,5.0,6.0,26,0.00,,,0.00,Wunderground v.1.15,2013-04-19 13:15:00,
2013-04-19 06:20:00,35.7,3.3,29.62,SSW,201,4.0,4.0,25,0.00,,,0.00,Wunderground v.1.15,2013-04-19 13:20:00,
2013-04-19 06:25:00,36.8,3.3,29.62,SSW,211,5.0,6.0,24,0.00,,,0.00,Wunderground v.1.15,2013-04-19 13:25:00,
2013-04-19 06:30:00,38.0,4.3,29.62,SSW,212,5.0,5.0,24,0.00,,,0.00,Wunderground v.1.15,2013-04-19 13:30:00,
2013-04-19 06:35:00,39.0,4.3,29.62,SSW,213,4.0,5.0,23,0.00,,,0.00,Wunderground v.1.15,2013-04-19 13:35:00,
2013-04-19 06:40:00,39.8,4.0,29.62,SSW,213,2.0,2.0,22,0.00,,,0.00,Wunderground v.1.15,2013-04-19 13:40:00,
2013-04-19 06:45:00,40.5,4.6,29.62,SSW,213,0.0,4.0,22,0.00,,,0.00,Wunderground v.1.15,2013-04-19 13:45:00,
2013-04-19 06:50:00,41.9,3.7,29.62,SW,215,1.0,6.0,20,0.00,,,0.00,Wunderground v.1.15,2013-04-19 13:50:00,
2013-04-19 06:55:00,43.9,3.0,29.62,SW,217,3.0,6.0,18,0.00,,,0.00,Wunderground v.1.15,2013-04-19 13:55:00,
2013-04-19 07:00:00,45.2,4.1,29.62,WSW,256,2.0,2.0,18,0.00,,,0.00,Wunderground v.1.15,2013-04-19 14:00:00,
2013-04-19 07:10:00,46.5,2.6,29.62,West,265,1.0,3.0,16,0.00,,,0.00,Wunderground v.1.15,2013-04-19 14:10:00,
2013-04-19 07:15:00,46.8,2.9,29.62,West,280,1.0,3.0,16,0.00,,,0.00,Wunderground v.1.15,2013-04-19 14:15:00,
2013-04-19 07:20:00,47.0,3.0,29.62,West,269,2.0,2.0,16,0.00,,,0.00,Wunderground v.1.15,2013-04-19 14:20:00,
2013-04-19 07:25:00,47.4,3.4,29.62,West,267,3.0,3.0,16,0.00,,,0.00,Wunderground v.1.15,2013-04-19 14:25:00,
2013-04-19 07:35:00,48.1,2.5,29.62,WSW,241,2.0,3.0,15,0.00,,,0.00,Wunderground v.1.15,2013-04-19 14:35:00,
2013-04-19 07:40:00,48.7,3.0,29.62,West,265,2.0,2.0,15,0.00,,,0.00,Wunderground v.1.15,2013-04-19 14:40:00,
2013-04-19 07:45:00,49.3,2.0,29.62,WNW,288,1.0,2.0,14,0.00,,,0.00,Wunderground v.1.15,2013-04-19 14:45:00,
2013-04-19 07:50:00,49.9,2.5,29.62,WSW,244,0.0,3.0,14,0.00,,,0.00,Wunderground v.1.15,2013-04-19 14:50:00,
2013-04-19 07:55:00,50.2,1.1,29.62,WNW,294,1.0,3.0,13,0.00,,,0.00,Wunderground v.1.15,2013-04-19 14:55:00,
2013-04-19 08:00:00,50.6,1.5,29.62,NW,321,0.0,0.0,13,0.00,,,0.00,Wunderground v.1.15,2013-04-19 15:00:00,
2013-04-19 08:10:00,51.8,2.4,29.62,NNW,344,0.0,1.0,13,0.00,,,0.00,Wunderground v.1.15,2013-04-19 15:10:00,
2013-04-19 08:15:00,52.1,2.7,29.62,North,5,0.0,1.0,13,0.00,,,0.00,Wunderground v.1.15,2013-04-19 15:15:00,
2013-04-19 08:20:00,52.4,2.9,29.62,NNW,327,1.0,2.0,13,0.00,,,0.00,Wunderground v.1.15,2013-04-19 15:20:00,
2013-04-19 08:25:00,52.5,3.0,29.62,NNW,337,1.0,2.0,13,0.00,,,0.00,Wunderground v.1.15,2013-04-19 15:25:00,
2013-04-19 08:30:00,52.5,3.0,29.62,NNW,342,1.0,1.0,13,0.00,,,0.00,Wunderground v.1.15,2013-04-19 15:30:00,
2013-04-19 08:35:00,53.1,5.1,29.62,NW,309,0.0,2.0,14,0.00,,,0.00,Wunderground v.1.15,2013-04-19 15:35:00,
2013-04-19 08:45:00,54.3,2.7,29.62,NNE,23,1.0,1.0,12,0.00,,,0.00,Wunderground v.1.15,2013-04-19 15:45:00,
2013-04-19 08:50:00,54.5,2.8,29.62,NNE,17,1.0,1.0,12,0.00,,,0.00,Wunderground v.1.15,2013-04-19 15:50:00,
2013-04-19 08:55:00,54.9,3.1,29.62,NE,51,0.0,1.0,12,0.00,,,0.00,Wunderground v.1.15,2013-04-19 15:55:00,
2013-04-19 09:00:00,55.7,3.8,29.62,NNE,24,0.0,2.0,12,0.00,,,0.00,Wunderground v.1.15,2013-04-19 16:00:00,
2013-04-19 09:10:00,55.6,3.7,29.62,North,355,1.0,1.0,12,0.00,,,0.00,Wunderground v.1.15,2013-04-19 16:10:00,
2013-04-19 09:15:00,55.8,3.8,29.62,ENE,72,2.0,5.0,12,0.00,,,0.00,Wunderground v.1.15,2013-04-19 16:15:00,
2013-04-19 09:20:00,56.2,4.2,29.62,NNE,30,2.0,5.0,12,0.00,,,0.00,Wunderground v.1.15,2013-04-19 16:20:00,
2013-04-19 09:25:00,56.1,4.1,29.62,ENE,65,2.0,5.0,12,0.00,,,0.00,Wunderground v.1.15,2013-04-19 16:25:00,
2013-04-19 09:35:00,56.6,4.5,29.62,SSW,200,1.0,2.0,12,0.00,,,0.00,Wunderground v.1.15,2013-04-19 16:35:00,
2013-04-19 09:40:00,56.9,4.7,29.62,NNE,19,0.0,1.0,12,0.00,,,0.00,Wunderground v.1.15,2013-04-19 16:40:00,
2013-04-19 09:45:00,57.7,1.4,29.62,East,92,0.0,1.0,10,0.00,,,0.00,Wunderground v.1.15,2013-04-19 16:45:00,
2013-04-19 09:50:00,58.0,-0.6,29.62,ESE,123,1.0,1.0,9,0.00,,,0.00,Wunderground v.1.15,2013-04-19 16:50:00,
2013-04-19 09:55:00,58.1,1.7,29.62,ESE,120,1.0,1.0,10,0.00,,,0.00,Wunderground v.1.15,2013-04-19 16:55:00,
2013-04-19 10:00:00,58.7,-0.1,29.62,ESE,102,1.0,5.0,9,0.00,,,0.00,Wunderground v.1.15,2013-04-19 17:00:00,
2013-04-19 10:10:00,59.2,0.3,29.62,East,92,2.0,6.0,9,0.00,,,0.00,Wunderground v.1.15,2013-04-19 17:10:00,
2013-04-19 10:20:00,59.1,0.2,29.62,NNE,16,2.0,5.0,9,0.00,,,0.00,Wunderground v.1.15,2013-04-19 17:20:00,
2013-04-19 10:25:00,59.6,0.6,29.62,ENE,65,3.0,5.0,9,0.00,,,0.00,Wunderground v.1.15,2013-04-19 17:25:00,
2013-04-19 10:30:00,60.3,-1.4,29.62,ENE,67,3.0,3.0,8,0.00,,,0.00,Wunderground v.1.15,2013-04-19 17:30:00,
2013-04-19 10:35:00,60.7,1.4,29.62,NNE,24,2.0,7.0,9,0.00,,,0.00,Wunderground v.1.15,2013-04-19 17:35:00,
2013-04-19 10:45:00,60.4,1.2,29.62,NNW,343,3.0,6.0,9,0.00,,,0.00,Wunderground v.1.15,2013-04-19 17:45:00,
2013-04-19 10:50:00,60.6,1.3,29.62,NNW,333,2.0,3.0,9,0.00,,,0.00,Wunderground v.1.15,2013-04-19 17:50:00,
2013-04-19 11:00:00,60.6,3.6,29.62,NNE,26,7.0,7.0,10,0.00,,,0.00,Wunderground v.1.15,2013-04-19 18:00:00,
2013-04-19 11:10:00,60.9,3.9,29.62,NNE,31,3.0,3.0,10,0.00,,,0.00,Wunderground v.1.15,2013-04-19 18:10:00,
2013-04-19 11:15:00,61.8,-0.3,29.62,ESE,111,2.0,3.0,8,0.00,,,0.00,Wunderground v.1.15,2013-04-19 18:15:00,
2013-04-19 11:20:00,61.8,-0.3,29.62,ENE,77,1.0,1.0,8,0.00,,,0.00,Wunderground v.1.15,2013-04-19 18:20:00,
2013-04-19 11:25:00,62.4,0.2,29.62,ESE,111,1.0,1.0,8,0.00,,,0.00,Wunderground v.1.15,2013-04-19 18:25:00,
2013-04-19 11:30:00,63.1,0.7,29.62,East,80,2.0,8.0,8,0.00,,,0.00,Wunderground v.1.15,2013-04-19 18:30:00,
2013-04-19 11:35:00,63.1,0.7,29.62,North,10,3.0,8.0,8,0.00,,,0.00,Wunderground v.1.15,2013-04-19 18:35:00,
2013-04-19 11:40:00,63.2,-2.0,29.62,NE,46,3.0,7.0,7,0.00,,,0.00,Wunderground v.1.15,2013-04-19 18:40:00,
2013-04-19 11:50:00,63.8,1.2,29.62,NNE,28,3.0,3.0,8,0.00,,,0.00,Wunderground v.1.15,2013-04-19 18:50:00,
2013-04-19 11:55:00,64.0,1.4,29.62,NNW,335,2.0,3.0,8,0.00,,,0.00,Wunderground v.1.15,2013-04-19 18:55:00,
2013-04-19 12:00:00,63.8,1.2,29.62,WNW,300,2.0,2.0,8,0.00,,,0.00,Wunderground v.1.15,2013-04-19 19:00:00,
2013-04-19 12:10:00,65.2,-0.6,29.62,East,85,2.0,9.0,7,0.00,,,0.00,Wunderground v.1.15,2013-04-19 19:10:00,
2013-04-19 12:15:00,65.6,-3.5,29.62,East,85,5.0,9.0,6,0.00,,,0.00,Wunderground v.1.15,2013-04-19 19:15:00,
2013-04-19 12:25:00,65.0,-4.0,29.62,ENE,65,6.0,6.0,6,0.00,,,0.00,Wunderground v.1.15,2013-04-19 19:25:00,
2013-04-19 12:30:00,65.3,-3.7,29.62,NE,38,7.0,7.0,6,0.00,,,0.00,Wunderground v.1.15,2013-04-19 19:30:00,
2013-04-19 12:35:00,65.4,-3.7,29.62,NNE,29,8.0,9.0,6,0.00,,,0.00,Wunderground v.1.15,2013-04-19 19:35:00,
2013-04-19 12:45:00,65.6,-3.5,29.62,East,80,7.0,10.0,6,0.00,,,0.00,Wunderground v.1.15,2013-04-19 19:45:00,
2013-04-19 12:50:00,66.7,-6.5,29.62,East,84,7.0,14.0,5,0.00,,,0.00,Wunderground v.1.15,2013-04-19 19:50:00,
2013-04-19 12:55:00,67.0,-6.3,29.62,East,82,8.0,14.0,5,0.00,,,0.00,Wunderground v.1.15,2013-04-19 19:55:00,
2013-04-19 13:00:00,67.4,-2.2,29.62,ENE,60,8.0,8.0,6,0.00,,,0.00,Wunderground v.1.15,2013-04-19 20:00:00,
2013-04-19 13:10:00,67.5,-6.0,29.62,East,80,7.0,13.0,5,0.00,,,0.00,Wunderground v.1.15,2013-04-19 20:10:00,
2013-04-19 13:15:00,67.9,-5.7,29.62,East,92,7.0,13.0,5,0.00,,,0.00,Wunderground v.1.15,2013-04-19 20:15:00,
2013-04-19 13:25:00,67.6,-5.9,29.62,NNE,27,7.0,7.0,5,0.00,,,0.00,Wunderground v.1.15,2013-04-19 20:25:00,
2013-04-19 13:30:00,67.5,-6.0,29.62,NNE,26,6.0,8.0,5,0.00,,,0.00,Wunderground v.1.15,2013-04-19 20:30:00,
2013-04-19 13:35:00,67.3,-2.3,29.62,NNE,13,6.0,8.0,6,0.00,,,0.00,Wunderground v.1.15,2013-04-19 20:35:00,
2013-04-19 13:45:00,67.7,-2.0,29.62,NNW,346,6.0,7.0,6,0.00,,,0.00,Wunderground v.1.15,2013-04-19 20:45:00,
2013-04-19 13:50:00,68.2,-5.5,29.62,NE,35,7.0,8.0,5,0.00,,,0.00,Wunderground v.1.15,2013-04-19 20:50:00,
2013-04-19 13:55:00,69.0,-4.9,29.62,East,87,9.0,9.0,5,0.00,,,0.00,Wunderground v.1.15,2013-04-19 20:55:00,
2013-04-19 14:00:00,69.0,-4.9,29.62,NNW,335,7.0,7.0,5,0.00,,,0.00,Wunderground v.1.15,2013-04-19 21:00:00,
2013-04-19 14:10:00,68.6,-1.3,29.62,NNW,331,6.0,6.0,6,0.00,,,0.00,Wunderground v.1.15,2013-04-19 21:10:00,
2013-04-19 14:15:00,68.4,-5.3,29.62,ENE,59,7.0,7.0,5,0.00,,,0.00,Wunderground v.1.15,2013-04-19 21:15:00,
2013-04-19 14:25:00,69.1,-4.8,29.62,NE,34,5.0,9.0,5,0.00,,,0.00,Wunderground v.1.15,2013-04-19 21:25:00,
2013-04-19 14:30:00,69.2,-4.7,29.62,NE,42,6.0,6.0,5,0.00,,,0.00,Wunderground v.1.15,2013-04-19 21:30:00,
2013-04-19 14:35:00,69.2,-4.7,29.62,NNE,30,3.0,7.0,5,0.00,,,0.00,Wunderground v.1.15,2013-04-19 21:35:00,
2013-04-19 14:40:00,69.4,-4.6,29.62,North,9,4.0,4.0,5,0.00,,,0.00,Wunderground v.1.15,2013-04-19 21:40:00,
2013-04-19 14:45:00,69.3,-4.7,29.62,NNE,14,4.0,5.0,5,0.00,,,0.00,Wunderground v.1.15,2013-04-19 21:45:00,
2013-04-19 14:55:00,69.5,-4.5,29.62,ENE,74,4.0,6.0,5,0.00,,,0.00,Wunderground v.1.15,2013-04-19 21:55:00,
2013-04-19 15:00:00,69.8,-8.9,29.62,ENE,77,5.0,5.0,4,0.00,,,0.00,Wunderground v.1.15,2013-04-19 22:00:00,
2013-04-19 15:10:00,70.1,-4.1,29.62,NNW,330,4.0,4.0,5,0.00,,,0.00,Wunderground v.1.15,2013-04-19 22:10:00,
2013-04-19 15:15:00,70.0,-0.3,29.62,NNW,342,3.0,10.0,6,0.00,,,0.00,Wunderground v.1.15,2013-04-19 22:15:00,
2013-04-19 15:20:00,70.3,-4.0,29.62,NNE,32,4.0,7.0,5,0.00,,,0.00,Wunderground v.1.15,2013-04-19 22:20:00,
2013-04-19 15:25:00,70.1,-4.1,29.62,NNW,333,6.0,7.0,5,0.00,,,0.00,Wunderground v.1.15,2013-04-19 22:25:00,
2013-04-19 15:30:00,70.3,-4.0,29.62,NW,314,4.0,5.0,5,0.00,,,0.00,Wunderground v.1.15,2013-04-19 22:30:00,
2013-04-19 15:35:00,70.1,-4.1,29.62,West,259,3.0,5.0,5,0.00,,,0.00,Wunderground v.1.15,2013-04-19 22:35:00,
2013-04-19 15:40:00,70.0,-4.2,29.62,NW,316,4.0,4.0,5,0.00,,,0.00,Wunderground v.1.15,2013-04-19 22:40:00,
2013-04-19 15:45:00,70.1,-4.1,29.62,NNW,342,4.0,4.0,5,0.00,,,0.00,Wunderground v.1.15,2013-04-19 22:45:00,
2013-04-19 15:55:00,70.3,-4.0,29.62,ENE,64,4.0,5.0,5,0.00,,,0.00,Wunderground v.1.15,2013-04-19 22:55:00,
2013-04-19 16:00:00,70.7,-3.7,29.62,NE,42,4.0,4.0,5,0.00,,,0.00,Wunderground v.1.15,2013-04-19 23:00:00,
2013-04-19 16:10:00,71.1,-3.4,29.62,NNW,344,2.0,2.0,5,0.00,,,0.00,Wunderground v.1.15,2013-04-19 23:10:00,
2013-04-19 16:15:00,71.0,-8.1,29.62,ENE,75,2.0,8.0,4,0.00,,,0.00,Wunderground v.1.15,2013-04-19 23:15:00,
2013-04-19 16:20:00,70.7,-8.3,29.62,North,349,4.0,6.0,4,0.00,,,0.00,Wunderground v.1.15,2013-04-19 23:20:00,
2013-04-19 16:25:00,70.6,-8.4,29.62,North,350,4.0,6.0,4,0.00,,,0.00,Wunderground v.1.15,2013-04-19 23:25:00,
2013-04-19 16:30:00,70.4,-8.5,29.62,NNE,22,2.0,3.0,4,0.00,,,0.00,Wunderground v.1.15,2013-04-19 23:30:00,
2013-04-19 16:40:00,70.3,-4.0,29.62,NW,324,2.0,2.0,5,0.00,,,0.00,Wunderground v.1.15,2013-04-19 23:40:00,
2013-04-19 16:45:00,70.5,-3.8,29.62,NNW,336,3.0,6.0,5,0.00,,,0.00,Wunderground v.1.15,2013-04-19 23:45:00,
2013-04-19 16:50:00,70.4,-3.9,29.62,North,9,4.0,4.0,5,0.00,,,0.00,Wunderground v.1.15,2013-04-19 23:50:00,
2013-04-19 16:55:00,70.3,-4.0,29.62,NNW,331,4.0,4.0,5,0.00,,,0.00,Wunderground v.1.15,2013-04-19 23:55:00,
2013-04-19 17:00:00,70.4,-3.9,29.62,North,360,4.0,4.0,5,0.00,,,0.00,Wunderground v.1.15,2013-04-20 00:00:00,
2013-04-19 17:10:00,70.4,-8.5,29.62,NNE,13,2.0,2.0,4,0.00,,,0.00,Wunderground v.1.15,2013-04-20 00:10:00,
2013-04-19 17:15:00,70.3,-0.1,29.62,North,355,2.0,2.0,6,0.00,,,0.00,Wunderground v.1.15,2013-04-20 00:15:00,
2013-04-19 17:20:00,70.3,-0.1,29.62,North,350,2.0,2.0,6,0.00,,,0.00,Wunderground v.1.15,2013-04-20 00:20:00,
2013-04-19 17:25:00,70.2,-0.2,29.62,NNW,344,2.0,2.0,6,0.00,,,0.00,Wunderground v.1.15,2013-04-20 00:25:00,
2013-04-19 17:30:00,69.9,8.4,29.62,NNE,25,3.0,3.0,9,0.00,,,0.00,Wunderground v.1.15,2013-04-20 00:30:00,
2013-04-19 17:35:00,69.7,-0.5,29.62,NNE,22,4.0,4.0,6,0.00,,,0.00,Wunderground v.1.15,2013-04-20 00:35:00,
2013-04-19 17:45:00,69.6,-4.5,29.62,NNW,343,5.0,5.0,5,0.00,,,0.00,Wunderground v.1.15,2013-04-20 00:45:00,
2013-04-19 17:50:00,69.3,5.4,29.62,North,350,3.0,3.0,8,0.00,,,0.00,Wunderground v.1.15,2013-04-20 00:50:00,
2013-04-19 17:55:00,68.9,12.2,29.62,North,5,1.0,3.0,11,0.00,,,0.00,Wunderground v.1.15,2013-04-20 00:55:00,
2013-04-19 18:00:00,68.3,4.6,29.62,North,9,2.0,3.0,8,0.00,,,0.00,Wunderground v.1.15,2013-04-20 01:00:00,
2013-04-19 18:10:00,68.0,13.4,29.62,North,5,1.0,1.0,12,0.00,,,0.00,Wunderground v.1.15,2013-04-20 01:10:00,
2013-04-19 18:15:00,67.4,14.8,29.62,North,5,0.0,1.0,13,0.00,,,0.00,Wunderground v.1.15,2013-04-20 01:15:00,
2013-04-19 18:20:00,66.9,17.7,29.62,North,5,0.0,0.0,15,0.00,,,0.00,Wunderground v.1.15,2013-04-20 01:20:00,
2013-04-19 18:25:00,66.5,12.3,29.62,North,5,0.0,0.0,12,0.00,,,0.00,Wunderground v.1.15,2013-04-20 01:25:00,
2013-04-19 18:30:00,66.1,5.5,29.62,North,10,0.0,0.0,9,0.00,,,0.00,Wunderground v.1.15,2013-04-20 01:30:00,
2013-04-19 18:40:00,65.5,5.1,29.62,NNE,18,0.0,0.0,9,0.00,,,0.00,Wunderground v.1.15,2013-04-20 01:40:00,
2013-04-19 18:45:00,64.9,6.9,29.62,NNE,19,1.0,4.0,10,0.00,,,0.00,Wunderground v.1.15,2013-04-20 01:45:00,
2013-04-19 18:50:00,63.9,8.3,29.62,NNE,26,3.0,4.0,11,0.00,,,0.00,Wunderground v.1.15,2013-04-20 01:50:00,
2013-04-19 18:55:00,63.0,9.5,29.62,North,9,3.0,4.0,12,0.00,,,0.00,Wunderground v.1.15,2013-04-20 01:55:00,
2013-04-19 19:00:00,62.2,10.7,29.62,North,9,2.0,3.0,13,0.00,,,0.00,Wunderground v.1.15,2013-04-20 02:00:00,
2013-04-19 19:10:00,61.1,8.0,29.62,NNE,23,2.0,2.0,12,0.00,,,0.00,Wunderground v.1.15,2013-04-20 02:10:00,
2013-04-19 19:15:00,60.6,5.7,29.62,NE,35,1.0,2.0,11,0.00,,,0.00,Wunderground v.1.15,2013-04-20 02:15:00,
2013-04-19 19:20:00,60.4,5.6,29.62,NE,35,0.0,0.0,11,0.00,,,0.00,Wunderground v.1.15,2013-04-20 02:20:00,
2013-04-19 19:30:00,57.7,1.4,29.62,SSW,202,0.0,0.0,10,0.00,,,0.00,Wunderground v.1.15,2013-04-20 02:30:00,
2013-04-19 19:35:00,56.9,0.8,29.62,SSW,194,0.0,5.0,10,0.00,,,0.00,Wunderground v.1.15,2013-04-20 02:35:00,
2013-04-19 19:40:00,55.3,1.6,29.62,South,186,2.0,2.0,11,0.00,,,0.00,Wunderground v.1.15,2013-04-20 02:40:00,
2013-04-19 19:45:00,53.9,0.5,29.62,South,188,3.0,3.0,11,0.00,,,0.00,Wunderground v.1.15,2013-04-20 02:45:00,
2013-04-19 19:50:00,52.5,-0.6,29.62,South,191,4.0,5.0,11,0.00,,,0.00,Wunderground v.1.15,2013-04-20 02:50:00,
2013-04-19 19:55:00,51.5,0.5,29.62,SSW,199,4.0,5.0,12,0.00,,,0.00,Wunderground v.1.15,2013-04-20 02:55:00,
2013-04-19 20:00:00,50.5,1.4,29.62,SSW,194,5.0,7.0,13,0.00,,,0.00,Wunderground v.1.15,2013-04-20 03:00:00,
2013-04-19 20:10:00,49.9,0.9,29.62,South,190,5.0,5.0,13,0.00,,,0.00,Wunderground v.1.15,2013-04-20 03:10:00,
2013-04-19 20:15:00,50.0,1.0,29.62,South,186,4.0,5.0,13,0.00,,,0.00,Wunderground v.1.15,2013-04-20 03:15:00,
2013-04-19 20:20:00,49.6,0.7,29.62,South,188,4.0,5.0,13,0.00,,,0.00,Wunderground v.1.15,2013-04-20 03:20:00,
2013-04-19 20:25:00,49.1,0.3,29.62,SSW,192,4.0,6.0,13,0.00,,,0.00,Wunderground v.1.15,2013-04-20 03:25:00,
2013-04-19 20:30:00,48.9,0.1,29.62,South,191,4.0,4.0,13,0.00,,,0.00,Wunderground v.1.15,2013-04-20 03:30:00,
2013-04-19 20:35:00,48.6,-0.1,29.62,SSW,192,4.0,4.0,13,0.00,,,0.00,Wunderground v.1.15,2013-04-20 03:35:00,
2013-04-19 20:40:00,48.2,1.1,29.62,South,190,5.0,5.0,14,0.00,,,0.00,Wunderground v.1.15,2013-04-20 03:40:00,
2013-04-19 20:50:00,47.8,0.8,29.62,SSW,198,5.0,6.0,14,0.00,,,0.00,Wunderground v.1.15,2013-04-20 03:50:00,
2013-04-19 20:55:00,47.9,0.9,29.62,South,188,5.0,6.0,14,0.00,,,0.00,Wunderground v.1.15,2013-04-20 03:55:00,
2013-04-19 21:00:00,47.7,0.7,29.62,SSW,196,5.0,5.0,14,0.00,,,0.00,Wunderground v.1.15,2013-04-20 04:00:00,
2013-04-19 21:05:00,47.3,0.4,29.62,SSW,198,5.0,5.0,14,0.00,,,0.00,Wunderground v.1.15,2013-04-20 04:05:00,
2013-04-19 21:10:00,47.0,0.2,29.62,SSW,192,5.0,5.0,14,0.00,,,0.00,Wunderground v.1.15,2013-04-20 04:10:00,
2013-04-19 21:15:00,46.9,0.1,29.62,South,184,4.0,5.0,14,0.00,,,0.00,Wunderground v.1.15,2013-04-20 04:15:00,
2013-04-19 21:25:00,46.8,0.0,29.62,SSW,196,4.0,6.0,14,0.00,,,0.00,Wunderground v.1.15,2013-04-20 04:25:00,
2013-04-19 21:30:00,46.6,-0.2,29.62,SSW,192,5.0,6.0,14,0.00,,,0.00,Wunderground v.1.15,2013-04-20 04:30:00,
2013-04-19 21:35:00,46.6,-0.2,29.62,SSW,192,5.0,6.0,14,0.00,,,0.00,Wunderground v.1.15,2013-04-20 04:35:00,
2013-04-19 21:45:00,46.9,0.1,29.62,SSW,198,5.0,6.0,14,0.00,,,0.00,Wunderground v.1.15,2013-04-20 04:45:00,
2013-04-19 21:50:00,47.1,0.2,29.62,SSW,193,5.0,6.0,14,0.00,,,0.00,Wunderground v.1.15,2013-04-20 04:50:00,
2013-04-19 21:55:00,47.0,0.2,29.62,South,190,5.0,6.0,14,0.00,,,0.00,Wunderground v.1.15,2013-04-20 04:55:00,
2013-04-19 22:00:00,47.0,0.2,29.62,SSW,194,4.0,4.0,14,0.00,,,0.00,Wunderground v.1.15,2013-04-20 05:00:00,
2013-04-19 22:10:00,46.5,-0.2,29.62,South,187,4.0,4.0,14,0.00,,,0.00,Wunderground v.1.15,2013-04-20 05:10:00,
2013-04-19 22:15:00,46.0,0.8,29.62,South,188,3.0,6.0,15,0.00,,,0.00,Wunderground v.1.15,2013-04-20 05:15:00,
2013-04-19 22:20:00,46.0,0.8,29.62,SSW,192,5.0,7.0,15,0.00,,,0.00,Wunderground v.1.15,2013-04-20 05:20:00,
2013-04-19 22:25:00,46.0,0.8,29.62,South,187,4.0,7.0,15,0.00,,,0.00,Wunderground v.1.15,2013-04-20 05:25:00,
2013-04-19 22:30:00,45.8,0.7,29.62,South,187,3.0,3.0,15,0.00,,,0.00,Wunderground v.1.15,2013-04-20 05:30:00,
2013-04-19 22:40:00,45.3,0.3,29.62,SSW,198,4.0,4.0,15,0.00,,,0.00,Wunderground v.1.15,2013-04-20 05:40:00,
2013-04-19 22:45:00,44.1,2.0,29.62,NW,308,3.0,4.0,17,0.00,,,0.00,Wunderground v.1.15,2013-04-20 05:45:00,
2013-04-19 22:50:00,43.5,3.9,29.62,NW,308,1.0,3.0,19,0.00,,,0.00,Wunderground v.1.15,2013-04-20 05:50:00,
2013-04-19 22:55:00,43.6,7.2,29.62,WNW,302,1.0,3.0,22,0.00,,,0.00,Wunderground v.1.15,2013-04-20 05:55:00,
2013-04-19 23:00:00,44.8,2.6,29.62,WNW,290,2.0,3.0,17,0.00,,,0.00,Wunderground v.1.15,2013-04-20 06:00:00,
2013-04-19 23:10:00,46.0,2.2,29.62,WNW,290,2.0,2.0,16,0.00,,,0.00,Wunderground v.1.15,2013-04-20 06:10:00,
2013-04-19 23:15:00,45.9,2.1,29.62,WNW,290,1.0,2.0,16,0.00,,,0.00,Wunderground v.1.15,2013-04-20 06:15:00,
2013-04-19 23:25:00,45.8,2.1,29.62,WNW,290,0.0,0.0,16,0.00,,,0.00,Wunderground v.1.15,2013-04-20 06:25:00,
2013-04-19 23:30:00,45.5,0.4,29.62,WNW,290,0.0,0.0,15,0.00,,,0.00,Wunderground v.1.15,2013-04-20 06:30:00,
2013-04-19 23:35:00,45.3,0.3,29.62,WNW,286,0.0,0.0,15,0.00,,,0.00,Wunderground v.1.15,2013-04-20 06:35:00,
2013-04-19 23:40:00,45.2,0.2,29.62,WNW,286,0.0,0.0,15,0.00,,,0.00,Wunderground v.1.15,2013-04-20 06:40:00,
2013-04-19 23:50:00,44.9,-0.1,29.62,SW,235,0.0,0.0,15,0.00,,,0.00,Wunderground v.1.15,2013-04-20 06:50:00,
2013-04-19 23:55:00,44.4,-0.5,29.62,South,184,0.0,0.0,15,0.00,,,0.00,Wunderground v.1.15,2013-04-20 06:55:00,